KI6PPU Weather Reports


time (UTC)temp
F
wind
direction
speed
knots
gust
knots
rain 1hr
in
rain 24hr
in
rain mn
in
humidity
%
barometer
mb
20220627211904 98 180 1.7 5.2 0.00 0.00 0.00 15 1018.8
20220627211402 100 252 3.5 4.3 0.00 0.00 0.00 14 1018.9
20220627210901 99 263 3.5 6.1 0.00 0.00 0.00 15 1019.0
20220627210400 99 312 1.7 3.5 0.00 0.00 0.00 18 1019.0
20220627205859 98 137 3.5 3.5 0.00 0.00 0.00 14 1018.8
20220627205400 98 180 0.0 4.3 0.00 0.00 0.00 14 1018.9
20220627204859 97 240 1.7 7.8 0.00 0.00 0.00 15 1019.0
20220627204358 100 106 0.9 4.3 0.00 0.00 0.00 14 1019.1
20220627203858 100 240 0.0 3.5 0.00 0.00 0.00 17 1018.8
20220627203356 99 301 3.5 5.2 0.00 0.00 0.00 16 1019.1
20220627202856 98 255 2.6 6.1 0.00 0.00 0.00 17 1018.9
20220627202355 98 319 3.5 5.2 0.00 0.00 0.00 15 1019.1
20220627201855 96 180 0.9 7.0 0.00 0.00 0.00 15 1018.9
20220627201354 98 175 1.7 4.3 0.00 0.00 0.00 16 1019.3
20220627200853 98 159 1.7 4.3 0.00 0.00 0.00 14 1019.2
20220627200352 98 154 2.6 2.6 0.00 0.00 0.00 15 1019.1
20220627195851 98 154 2.6 2.6 0.00 0.00 0.00 15 1019.1
20220627195350 97 291 4.3 4.3 0.00 0.00 0.00 16 1019.2
20220627194850 97 165 4.3 4.3 0.00 0.00 0.00 14 1019.3
20220627194349 97 165 4.3 4.3 0.00 0.00 0.00 14 1019.3
20220627193848 97 165 4.3 4.3 0.00 0.00 0.00 14 1019.1
20220627193348 97 165 4.3 4.3 0.00 0.00 0.00 14 1019.1
20220627192847 97 165 4.3 4.3 0.00 0.00 0.00 14 1019.4
20220627192346 97 165 4.3 4.3 0.00 0.00 0.00 14 1019.4
20220627191845 97 165 4.3 4.3 0.00 0.00 0.00 14 1019.3
20220627191343 97 165 4.3 4.3 0.00 0.00 0.00 14 1019.3
20220627190842 97 279 4.3 7.8 0.00 0.00 0.00 13 1019.3
20220627190341 95 209 1.7 4.3 0.00 0.00 0.00 14 1019.4
20220627185840 95 209 1.7 4.3 0.00 0.00 0.00 14 1019.5
20220627185339 95 209 1.7 4.3 0.00 0.00 0.00 14 1019.3
20220627184837 96 0 0.9 0.9 0.00 0.00 0.00 17 1019.4
20220627184338 96 0 0.9 0.9 0.00 0.00 0.00 17 1019.3
20220627183836 96 0 0.9 0.9 0.00 0.00 0.00 17 1019.4
20220627183335 96 0 0.9 0.9 0.00 0.00 0.00 17 1019.2
20220627182834 96 0 0.9 0.9 0.00 0.00 0.00 17 1019.3
20220627182333 96 0 0.9 0.9 0.00 0.00 0.00 17 1019.5
20220627181833 95 219 3.5 3.5 0.00 0.00 0.00 17 1019.3
20220627181332 94 217 4.3 4.3 0.00 0.00 0.00 17 1019.3
20220627180831 94 356 1.7 3.5 0.00 0.00 0.00 22 1019.4
20220627180330 94 219 2.6 2.6 0.00 0.00 0.00 26 1019.2
20220627175829 94 219 2.6 2.6 0.00 0.00 0.00 26 1019.2
20220627175329 94 219 2.6 2.6 0.00 0.00 0.00 26 1019.1
20220627174827 94 237 0.0 2.6 0.00 0.00 0.00 28 1019.1
20220627174326 94 262 2.6 2.6 0.00 0.00 0.00 28 1019.1
20220627173827 93 341 0.0 1.7 0.00 0.00 0.00 29 1019.1
20220627173325 94 157 1.7 2.6 0.00 0.00 0.00 28 1019.0
20220627172825 91 0 0.9 1.7 0.00 0.00 0.00 31 1019.0
20220627172323 91 0 0.9 1.7 0.00 0.00 0.00 31 1018.8
20220627171820 91 0 0.9 1.7 0.00 0.00 0.00 31 1019.1
20220627171319 91 0 0.9 1.7 0.00 0.00 0.00 31 1019.0
20220627170817 91 346 2.6 3.5 0.00 0.00 0.00 32 1019.0
20220627170315 90 283 0.9 3.5 0.00 0.00 0.00 34 1018.8
20220627165814 91 330 2.6 2.6 0.00 0.00 0.00 31 1019.0
20220627165315 91 352 0.0 1.7 0.00 0.00 0.00 32 1019.1
20220627164814 89 352 0.9 2.6 0.00 0.00 0.00 33 1018.9
20220627164312 89 354 0.9 2.6 0.00 0.00 0.00 37 1018.9
20220627163811 89 339 0.0 2.6 0.00 0.00 0.00 33 1019.1
20220627163307 87 294 0.9 2.6 0.00 0.00 0.00 36 1019.1
20220627162806 87 0 0.0 2.6 0.00 0.00 0.00 34 1019.0
20220627162305 86 0 0.0 0.9 0.00 0.00 0.00 36 1019.1
20220627161803 86 340 0.9 1.7 0.00 0.00 0.00 35 1019.2
20220627161302 85 337 0.0 1.7 0.00 0.00 0.00 37 1019.1
20220627160801 84 351 0.0 1.7 0.00 0.00 0.00 36 1019.2
20220627160259 84 283 0.0 1.7 0.00 0.00 0.00 40 1019.0
20220627155759 84 337 0.0 0.9 0.00 0.00 0.00 42 1019.2
20220627155257 83 66 0.0 1.7 0.00 0.00 0.00 40 1019.1
20220627154756 83 261 0.9 1.7 0.00 0.00 0.00 45 1019.0
20220627154255 82 311 0.0 1.7 0.00 0.00 0.00 44 1018.9
20220627153754 81 291 0.9 1.7 0.00 0.00 0.00 45 1019.1
20220627153253 79 60 0.9 0.9 0.00 0.00 0.00 43 1019.2
20220627152752 78 53 0.0 1.7 0.00 0.00 0.00 44 1019.0
20220627152250 77 14 0.0 1.7 0.00 0.00 0.00 45 1019.0
20220627151749 78 8 0.0 0.0 0.00 0.00 0.00 44 1018.9
20220627151249 76 270 0.9 1.7 0.00 0.00 0.00 49 1018.8
20220627150747 74 90 0.0 0.0 0.00 0.00 0.00 46 1018.9
20220627150246 73 114 0.0 1.7 0.00 0.00 0.00 48 1019.0
20220627145745 72 74 0.0 0.9 0.00 0.00 0.00 49 1019.0
20220627145245 72 35 0.0 0.0 0.00 0.00 0.00 48 1018.9
20220627144744 71 29 0.0 1.7 0.00 0.00 0.00 49 1018.9
20220627144242 70 331 0.0 1.7 0.00 0.00 0.00 52 1019.0
20220627143740 67 300 0.0 0.9 0.00 0.00 0.00 56 1018.8
20220627143239 67 331 0.0 1.7 0.00 0.00 0.00 59 1018.8
20220627142738 67 6 0.9 1.7 0.00 0.00 0.00 54 1018.9
20220627142236 68 353 0.0 0.9 0.00 0.00 0.00 53 1018.8
20220627141736 66 74 0.0 0.9 0.00 0.00 0.00 55 1018.6
20220627141235 65 90 0.0 1.7 0.00 0.00 0.00 56 1018.3
20220627140734 65 83 0.9 1.7 0.00 0.00 0.00 55 1018.8
20220627140233 65 35 0.0 0.9 0.00 0.00 0.00 56 1018.5
20220627135732 62 90 0.9 0.9 0.00 0.00 0.00 59 1018.3
20220627135230 59 99 0.0 0.9 0.00 0.00 0.00 66 1018.4
20220627134730 57 45 1.7 2.6 0.00 0.00 0.00 68 1018.4
20220627134229 56 70 1.7 1.7 0.00 0.00 0.00 70 1018.4
20220627133728 55 90 0.0 1.7 0.00 0.00 0.00 71 1018.4
20220627133227 55 72 2.6 2.6 0.00 0.00 0.00 72 1018.4
20220627132726 54 79 1.7 1.7 0.00 0.00 0.00 73 1018.3
20220627132224 53 74 0.9 1.7 0.00 0.00 0.00 74 1018.3
20220627131723 53 109 0.9 0.9 0.00 0.00 0.00 74 1018.3
20220627131222 53 132 0.0 1.7 0.00 0.00 0.00 75 1018.2
20220627130721 53 96 0.9 1.7 0.00 0.00 0.00 75 1018.1
20220627130218 53 90 0.9 1.7 0.00 0.00 0.00 75 1018.0
20220627125717 53 83 0.9 1.7 0.00 0.00 0.00 74 1018.1
20220627125216 54 90 0.9 1.7 0.00 0.00 0.00 73 1018.0
20220627124715 54 103 0.9 1.7 0.00 0.00 0.00 72 1018.2
20220627124215 54 77 0.0 0.9 0.00 0.00 0.00 72 1018.3
20220627123714 54 90 2.6 2.6 0.00 0.00 0.00 73 1018.0
20220627123213 55 131 0.0 1.7 0.00 0.00 0.00 72 1017.8
20220627122713 54 49 0.0 1.7 0.00 0.00 0.00 73 1018.1
20220627122211 54 105 0.0 0.9 0.00 0.00 0.00 74 1018.0
20220627121709 54 77 1.7 1.7 0.00 0.00 0.00 73 1018.0
20220627121209 54 90 0.9 1.7 0.00 0.00 0.00 73 1017.8
20220627120708 54 53 1.7 2.6 0.00 0.00 0.00 73 1017.9
20220627120207 54 84 0.9 1.7 0.00 0.00 0.00 73 1017.9
20220627115706 54 60 0.0 1.7 0.00 0.00 0.00 73 1017.9
20220627115205 55 96 0.9 1.7 0.00 0.00 0.00 71 1017.8
20220627114705 55 66 1.7 2.6 0.00 0.00 0.00 72 1017.8
20220627114204 54 82 0.0 1.7 0.00 0.00 0.00 82 1017.7
20220627113704 56 90 1.7 2.6 0.00 0.00 0.00 69 1018.0
20220627113203 55 90 0.0 1.7 0.00 0.00 0.00 70 1017.7
20220627112702 56 60 1.7 2.6 0.00 0.00 0.00 69 1017.7
20220627112202 55 120 0.0 0.9 0.00 0.00 0.00 70 1017.7
20220627111701 55 90 0.0 0.9 0.00 0.00 0.00 70 1017.7
20220627111159 56 99 0.0 1.7 0.00 0.00 0.00 69 1017.6
20220627110657 56 90 0.0 1.7 0.00 0.00 0.00 69 1017.6
20220627110156 56 103 0.9 1.7 0.00 0.00 0.00 68 1017.8
20220627105655 56 75 0.9 1.7 0.00 0.00 0.00 68 1017.7
20220627105154 0 0.0 0.0 0.00 0.00 0.00 1017.6
20220627104653 0 0.0 0.0 0.00 0.00 0.00 1017.6
20220627104152 0 0.0 0.0 0.00 0.00 0.00 1017.6
20220627103650 0 0.0 0.0 0.00 0.00 0.00 1017.6
20220627103150 0 0.0 0.0 0.00 0.00 0.00 1017.7
20220627102650 0 0.0 0.0 0.00 0.00 0.00 1017.7
20220627102148 0 0.0 0.0 0.00 0.00 0.00 1017.7
20220627101647 0 0.0 0.0 0.00 0.00 0.00 1017.7
20220627101145 0 0.0 0.0 0.00 0.00 0.00 1017.6
20220627100644 0 0.0 0.0 0.00 0.00 0.00 1017.6
20220627100143 0 0.0 0.0 0.00 0.00 0.00 1017.5
20220627095643 0 0.0 0.0 0.00 0.00 0.00 1017.7
20220627095141 0 0.0 0.0 0.00 0.00 0.00 1017.5
20220627094641 0 0.0 0.0 0.00 0.00 0.00 1017.5
20220627094139 0 0.0 0.0 0.00 0.00 0.00 1017.5
20220627093638 0 0.0 0.0 0.00 0.00 0.00 1017.6
20220627093138 0 0.0 0.0 0.00 0.00 0.00 1017.5
20220627092637 0 0.0 0.0 0.00 0.00 0.00 1017.5
20220627092136 0 0.0 0.0 0.00 0.00 0.00 1017.5
20220627091635 0 0.0 0.0 0.00 0.00 0.00 1017.6
20220627091134 0 0.0 0.0 0.00 0.00 0.00 1017.5
20220627090633 0 0.0 0.0 0.00 0.00 0.00 1017.5
20220627090132 0 0.0 0.0 0.00 0.00 0.00 1017.5
20220627085632 0 0.0 0.0 0.00 0.00 0.00 1017.6
20220627085131 0 0.0 0.0 0.00 0.00 0.00 1017.5
20220627084630 0 0.0 0.0 0.00 0.00 0.00 1017.5
20220627084129 0 0.0 0.0 0.00 0.00 0.00 1017.5
20220627083628 0 0.0 0.0 0.00 0.00 0.00 1017.4
20220627083125 0 0.0 0.0 0.00 0.00 0.00 1017.5
20220627082625 0 0.0 0.0 0.00 0.00 0.00 1017.4
20220627082124 0 0.0 0.0 0.00 0.00 0.00 1017.7
20220627081623 0 0.0 0.0 0.00 0.00 0.00 1017.4
20220627081121 0 0.0 0.0 0.00 0.00 0.00 1017.5
20220627080620 0 0.0 0.0 0.00 0.00 0.00 1017.4
20220627080117 0 0.0 0.0 0.00 0.00 0.00 1017.7
20220627075616 0 0.0 0.0 0.00 0.00 0.00 1017.4
20220627075115 0 0.0 0.0 0.00 0.00 0.00 1017.6
20220627074613 0 0.0 0.0 0.00 0.00 0.00 1017.4
20220627074113 0 0.0 0.0 0.00 0.00 0.00 1017.7
20220627073612 0 0.0 0.0 0.00 0.00 0.00 1017.5
20220627073112 0 0.0 0.0 0.00 0.00 0.00 1017.4
20220627072611 0 0.0 0.0 0.00 0.00 0.00 1017.6
20220627072109 0 0.0 0.0 0.00 0.00 0.00 1017.4
20220627071608 0 0.0 0.0 0.00 0.00 0.00 1017.5
20220627071108 0 0.0 0.0 0.00 0.00 0.00 1017.6
20220627070607 0 0.0 0.0 0.00 0.00 0.00 1017.5
20220627070106 0 0.0 0.0 0.00 0.00 0.00 1017.6
20220627065605 0 0.0 0.0 0.00 0.01 0.01 1017.6
20220627065105 0 0.0 0.0 0.00 0.01 0.01 1017.6
20220627064603 0 0.0 0.0 0.00 0.01 0.01 1017.6
20220627064103 0 0.0 0.0 0.00 0.01 0.01 1017.6
20220627063602 73 90 0.9 1.7 0.00 0.01 0.01 38 1017.6
20220627063101 73 90 0.9 1.7 0.00 0.01 0.01 38 1017.8
20220627062600 73 90 0.9 1.7 0.00 0.01 0.01 38 1017.7
20220627062100 73 90 0.9 1.7 0.00 0.01 0.01 38 1017.7
20220627061558 73 90 0.9 1.7 0.00 0.01 0.01 38 1017.7
20220627061058 73 90 0.9 1.7 0.00 0.01 0.01 38 1017.7
20220627060556 73 90 0.9 1.7 0.00 0.01 0.01 38 1017.7
20220627060055 73 90 0.9 1.7 0.00 0.01 0.01 38 1017.7
20220627055554 73 90 0.9 1.7 0.00 0.01 0.01 38 1017.8
20220627055053 73 90 0.9 1.7 0.00 0.01 0.01 38 1017.8
20220627054551 73 90 0.9 1.7 0.00 0.01 0.01 38 1017.7
20220627054051 73 90 0.9 1.7 0.00 0.01 0.01 38 1017.7
20220627053550 72 90 0.0 1.7 0.00 0.01 0.01 38 1017.6
20220627053049 71 139 1.7 1.7 0.00 0.01 0.01 41 1017.7
20220627052547 71 106 0.0 0.9 0.00 0.01 0.01 42 1017.8
20220627052048 74 83 0.0 1.7 0.00 0.01 0.01 37 1017.7
20220627051548 73 61 2.6 2.6 0.00 0.01 0.01 37 1017.8
20220627051047 72 160 0.0 0.0 0.00 0.01 0.01 39 1017.4
20220627050547 72 160 0.0 0.0 0.00 0.01 0.01 39 1017.7
20220627050046 73 200 0.0 0.9 0.00 0.01 0.01 37 1017.5
20220627045545 74 213 0.0 0.0 0.00 0.01 0.01 37 1017.6
20220627045044 75 203 0.9 1.7 0.00 0.01 0.01 36 1017.5
20220627044542 74 251 0.0 0.0 0.00 0.01 0.01 37 1017.6
20220627044041 74 261 0.0 0.9 0.00 0.01 0.01 37 1017.1
20220627043541 75 254 0.0 0.0 0.00 0.01 0.01 35 1017.4
20220627043041 75 237 1.7 2.6 0.00 0.01 0.01 35 1017.3
20220627042542 77 324 0.0 1.7 0.00 0.01 0.01 34 1017.2
20220627042041 77 262 0.9 1.7 0.00 0.01 0.01 34 1017.0
20220627041540 78 286 0.0 1.7 0.00 0.01 0.01 35 1017.1
20220627041039 79 234 0.0 1.7 0.00 0.01 0.01 33 1017.0
20220627040537 79 306 0.0 1.7 0.00 0.01 0.01 32 1016.9
20220627040037 80 270 0.9 1.7 0.00 0.01 0.01 31 1016.9
20220627035536 80 195 0.9 1.7 0.00 0.01 0.01 32 1016.8
20220627035035 81 246 0.0 0.9 0.00 0.01 0.01 31 1016.8
20220627034534 82 249 0.9 2.6 0.00 0.01 0.01 29 1016.7
20220627034033 82 249 0.0 0.9 0.00 0.01 0.01 28 1016.7
20220627033532 82 225 0.0 1.7 0.00 0.01 0.01 28 1016.9
20220627033031 83 196 0.0 2.6 0.00 0.01 0.01 27 1016.7
20220627032531 84 345 0.0 1.7 0.00 0.01 0.01 26 1016.6
20220627032029 85 261 0.0 2.6 0.00 0.01 0.01 25 1016.7
20220627031529 85 225 0.0 1.7 0.00 0.01 0.01 26 1016.6
20220627031029 86 225 1.7 1.7 0.00 0.01 0.01 26 1016.7
20220627030528 87 240 0.0 1.7 0.00 0.01 0.01 25 1016.6
20220627030026 88 246 0.0 1.7 0.00 0.01 0.01 25 1016.7
20220627025525 88 240 0.9 1.7 0.00 0.01 0.01 25 1016.5
20220627025024 89 225 0.0 1.7 0.00 0.01 0.01 25 1016.8
20220627024523 89 229 0.0 1.7 0.00 0.01 0.01 25 1016.7
20220627024023 90 215 0.0 2.6 0.00 0.01 0.01 24 1016.8
20220627023523 90 215 0.9 1.7 0.00 0.01 0.01 25 1016.7
20220627023022 91 240 0.0 1.7 0.00 0.01 0.01 24 1016.7
20220627022522 91 206 0.9 1.7 0.00 0.01 0.01 24 1016.6
20220627022021 92 212 1.7 1.7 0.00 0.01 0.01 23 1016.6
20220627021521 92 180 0.9 2.6 0.00 0.01 0.01 23 1016.7
20220627021020 93 200 0.0 1.7 0.00 0.01 0.01 23 1016.4
20220627020520 93 216 1.7 1.7 0.00 0.01 0.01 21 1016.6
20220627020019 94 203 0.0 2.6 0.00 0.01 0.01 22 1016.6
20220627015517 95 294 0.0 2.6 0.00 0.01 0.01 17 1016.7
20220627015016 95 286 0.0 1.7 0.00 0.01 0.01 17 1016.5
20220627014515 95 209 0.0 1.7 0.00 0.01 0.01 21 1016.6
20220627014015 96 131 0.0 1.7 0.00 0.01 0.01 18 1016.5
20220627013513 96 195 0.0 3.5 0.00 0.01 0.01 18 1016.5
20220627013013 96 194 0.0 2.6 0.00 0.01 0.01 18 1016.5
20220627012511 97 291 0.0 1.7 0.00 0.01 0.01 17 1016.6
20220627012011 99 209 0.0 1.7 0.00 0.01 0.01 15 1016.7
20220627011509 100 275 1.7 2.6 0.00 0.01 0.01 15 1016.6
20220627011009 100 275 1.7 2.6 0.00 0.01 0.01 15 1016.6
20220627010507 100 264 1.7 3.5 0.00 0.01 0.01 14 1016.7
20220627010006 100 213 1.7 2.6 0.00 0.01 0.01 13 1016.6
20220627005505 101 297 0.0 2.6 0.00 0.01 0.01 13 1016.7
20220627005005 101 294 0.0 2.6 0.00 0.01 0.01 14 1016.6
20220627004504 101 270 0.0 2.6 0.00 0.01 0.01 15 1016.4
20220627004003 101 213 0.0 2.6 0.00 0.01 0.01 14 1016.6
20220627003501 101 220 1.7 3.5 0.00 0.01 0.01 13 1016.6
20220627003001 101 270 1.7 1.7 0.00 0.01 0.01 16 1016.4
20220627002500 100 263 3.5 5.2 0.00 0.01 0.01 14 1016.6
20220627002000 100 275 0.0 5.2 0.00 0.01 0.01 16 1016.6
20220627001459 100 215 3.5 6.1 0.00 0.01 0.01 15 1016.5
20220627000959 101 341 4.3 4.3 0.00 0.01 0.01 15 1016.5
20220627000458 101 270 3.5 4.3 0.00 0.01 0.01 14 1016.6
20220626235957 101 297 0.0 4.3 0.00 0.01 0.01 16 1016.6
20220626235456 100 280 1.7 6.1 0.00 0.01 0.01 14 1016.7
20220626234956 102 225 1.7 4.3 0.00 0.01 0.01 15 1016.7
20220626234454 101 283 2.6 5.2 0.00 0.01 0.01 16 1016.4
20220626233952 101 328 3.5 4.3 0.00 0.01 0.01 16 1016.7
20220626233450 100 282 2.6 5.2 0.00 0.01 0.01 17 1016.8
20220626232950 99 279 2.6 6.1 0.00 0.01 0.01 16 1016.6
20220626232449 99 318 2.6 5.2 0.00 0.01 0.01 16 1016.8
20220626231948 100 265 1.7 3.5 0.00 0.01 0.01 20 1016.6
20220626231446 100 285 2.6 5.2 0.00 0.01 0.01 16 1016.8
20220626230946 101 254 6.1 6.1 0.00 0.01 0.01 15 1016.7
20220626230444 100 301 2.6 4.3 0.00 0.01 0.01 17 1016.7
20220626225944 100 270 1.7 6.1 0.00 0.01 0.01 16 1016.9
20220626225443 100 278 3.5 6.1 0.00 0.01 0.01 17 1017.0
20220626224942 101 270 1.7 5.2 0.00 0.01 0.01 17 1016.8
20220626224441 100 287 1.7 5.2 0.00 0.01 0.01 17 1016.9
20220626223942 100 228 1.7 2.6 0.00 0.01 0.01 16 1017.0
20220626223440 101 206 0.0 3.5 0.00 0.01 0.01 18 1016.9
20220626222938 99 270 1.7 4.3 0.00 0.01 0.01 19 1016.9
20220626222436 99 305 3.5 7.8 0.00 0.01 0.01 17 1016.9
20220626221935 100 303 1.7 3.5 0.00 0.01 0.01 17 1017.1
20220626221435 101 270 1.7 8.7 0.00 0.01 0.01 18 1017.1
20220626220935 101 266 2.6 7.0 0.00 0.01 0.01 17 1017.1
20220626220434 101 241 3.5 6.1 0.00 0.01 0.01 17 1017.1
20220626215933 102 286 0.9 2.6 0.00 0.01 0.01 16 1017.1
20220626215431 100 251 3.5 4.3 0.00 0.01 0.01 16 1017.2
20220626214931 99 257 1.7 6.1 0.00 0.01 0.01 17 1017.0
20220626214430 100 98 0.9 4.3 0.00 0.01 0.01 17 1017.2
20220626213929 101 234 2.6 4.3 0.00 0.01 0.01 17 1017.1
20220626213427 100 334 2.6 6.1 0.00 0.01 0.01 16 1017.3
20220626212927 101 173 2.6 4.3 0.00 0.01 0.01 13 1017.1
20220626212427 100 315 1.7 7.0 0.00 0.01 0.01 17 1017.2